Location: West Cummington
(42.4920°N, 72.9680°W)
Time: 18:34:01
(UTC-04:00)

ATLAS 2AS CENTAUR R/B - Visible Passes

Search period start: 26 June 2016 00:00
Search period end: 06 July 2016 00:00
Orbit: 904 x 1308 km, 63.7° (Epoch: 24 June)

Date Brightness Start Highest point End Pass type
(mag) Time Alt. Az. Time Alt. Az. Time Alt. Az.
26 Jun 3.3 00:32:38 21° SW 00:38:01 67° NW 00:46:07 10° NNE visible
26 Jun 4.9 02:24:31 10° WNW 02:30:40 24° NNW 02:37:01 10° NNE visible
26 Jun 5.4 04:20:23 10° NW 04:25:02 16° N 04:29:41 10° NE visible
26 Jun 4.2 22:00:49 16° SE 22:03:18 19° ESE 22:08:19 10° ENE visible
26 Jun 2.9 23:48:09 24° SSW 23:53:08 86° ESE 00:01:16 10° NE visible
27 Jun 4.6 01:38:28 10° W 01:45:11 30° NNW 01:52:12 10° NNE visible
27 Jun 5.4 03:34:25 10° NW 03:39:11 16° N 03:44:00 10° NNE visible
27 Jun 4.6 21:18:32 10° ESE 21:19:10 10° E 21:19:48 10° E visible
27 Jun 3.0 23:03:26 22° S 23:08:26 59° ESE 23:16:18 10° NE visible
28 Jun 4.2 00:52:42 10° WSW 00:59:51 40° NW 01:07:26 10° NNE visible
28 Jun 5.3 02:48:12 10° NW 02:53:23 18° NNW 02:58:40 10° NNE visible
28 Jun 5.5 04:42:48 10° NNW 04:48:00 18° NNE 04:53:09 10° NE visible
28 Jun 3.4 22:18:20 15° S 22:23:54 39° ESE 22:31:08 10° NE visible
29 Jun 3.6 00:07:16 10° SW 00:14:42 55° NW 00:22:39 10° NNE visible
29 Jun 5.2 02:01:54 10° WNW 02:07:41 21° NNW 02:13:38 10° NNE visible
29 Jun 5.5 03:57:26 10° NNW 04:02:12 16° N 04:06:56 10° NE visible
29 Jun 3.9 21:33:46 10° SSE 21:39:31 25° ESE 21:45:37 10° ENE visible
29 Jun 3.1 23:22:10 10° SW 23:29:43 77° NW 23:37:51 10° NE visible
30 Jun 4.9 01:15:43 10° W 01:22:07 26° NNW 01:28:45 10° NNE visible
30 Jun 5.5 03:11:41 10° NW 03:16:20 16° N 03:21:01 10° NNE visible
30 Jun 2.9 22:37:28 10° SSW 22:44:54 75° ESE 22:52:57 10° NE visible
01 Jul 4.5 00:29:47 10° W 00:36:41 34° NW 00:43:56 10° NNE visible
01 Jul 5.5 02:25:36 10° NW 02:30:30 17° N 02:35:29 10° NNE visible
01 Jul 5.5 04:19:32 10° NNW 04:25:06 19° NNE 04:30:35 10° ENE visible
01 Jul 3.2 21:53:10 10° S 22:00:15 50° ESE 22:07:55 10° NE visible
01 Jul 4.0 23:44:08 10° WSW 23:51:26 45° NW 23:59:11 10° NNE visible
02 Jul 5.4 01:39:19 10° WNW 01:44:45 19° NNW 01:50:17 10° NNE visible
02 Jul 5.6 03:34:21 10° NNW 03:39:20 17° N 03:44:18 10° NE visible
02 Jul 3.6 21:09:23 10° S 21:15:48 33° ESE 21:22:38 10° NE visible
02 Jul 3.5 22:58:50 10° SW 23:06:20 63° NW 23:14:24 10° NNE visible
03 Jul 5.2 00:53:04 10° WNW 00:59:05 23° NNW 01:05:19 10° NNE visible
03 Jul 5.6 02:48:50 10° NNW 02:53:30 16° N 02:58:10 10° NE visible
03 Jul 5.4 04:41:03 10° NNW 04:47:43 27° NNE 04:54:12 10° E visible
03 Jul 3.0 22:13:54 10° SW 22:21:25 88° NW 22:29:34 10° NE visible
04 Jul 4.9 00:06:58 10° W 00:13:35 29° NNW 00:20:28 10° NNE visible
04 Jul 5.6 02:02:56 10° NW 02:07:39 16° N 02:12:25 10° NNE visible
04 Jul 5.6 03:56:11 10° NNW 04:02:09 21° NNE 04:08:01 10° ENE visible
04 Jul 3.0 21:29:20 10° SSW 21:36:41 64° ESE 21:44:37 10° NE visible
04 Jul 4.4 23:21:08 10° WSW 23:28:13 38° NW 23:35:42 10° NNE visible
05 Jul 5.6 01:16:44 10° NW 01:21:50 18° NNW 01:27:02 10° NNE visible
05 Jul 5.7 03:11:09 10° NNW 03:16:27 18° NNE 03:21:42 10° NE visible
05 Jul 3.9 22:35:38 10° WSW 22:43:02 52° NW 22:50:56 10° NNE visible
